Location: Zagreb
(45.8000°N, 16.0000°E)
Time: 15:34:53
(UTC+02:00)

Transit 2A - Pass Details

Date: 16 August 2022
Orbit: 601 x 956 km, 66.7° (Epoch: 25 September)

Event Time Altitude Azimuth Distance (km) Brightness Sun altitude
Rises 18:11:47 0° 337° (NNW) 2,862 9.3 18.1°
Reaches altitude 10° 18:14:55 10° 1° (N) 1,956 8.2 17.6°
Maximum altitude 18:17:29 15° 37° (NE) 1,654 7.5 17.1°
Drops below altitude 10° 18:20:05 10° 73° (ENE) 1,987 7.7 16.7°
Sets 18:23:18 0° 97° (E) 2,935 8.4 16.1°
